BBC Congo — V2EL3 — position and weather

sailwx.info

Track history (hours):
 
Tides and Currents Weather Stations Pressure Air Temp Water Temp Dewpoint Dewpoint Depression Visibility Wind Speed Wind Dir Waves Ship Positions

BBC Congo

Last reported at 2014-Jul-30 02:25 UTC. Time now 2014-Jul-31 17:36 UTC.
Position N 30°54' E 032°19'.

Length 144 m; draft 9 m.

Type: Ship. MMSI: 305466000.

Date/timePositionNaut miles runAvg speedWind from/ knotsBaromVisibWave heightAir tempDewpointWater temp
2014-Jul-30 02:25N 30°54' E 032°19'23 8.2
2014-Jul-29 23:33N 31°18' E 032°20'4 4.4
2014-Jul-29 22:33N 31°22' E 032°20'1 0.2
2014-Jul-29 18:22N 31°21' E 032°20'0 0.0
2014-Jul-29 11:07N 31°21' E 032°20'0 0.0
2014-Jul-29 10:31N 31°21' E 032°20'0 0.0
2014-Jul-29 09:28N 31°21' E 032°20'0 0.0
2014-Jul-29 08:31N 31°21' E 032°20'14 3.5
2014-Jul-29 04:34N 31°33' E 032°11'2713.3
2014-Jul-29 02:32N 31°48' E 031°45'1413.9
2014-Jul-29 01:33N 31°52' E 031°29'1413.8
2014-Jul-29 00:34N 31°56' E 031°14'1413.6
2014-Jul-28 23:34N 32°00' E 030°59'1413.6
2014-Jul-28 22:34N 32°04' E 030°43'1413.7
2014-Jul-28 21:33N 32°09' E 030°28'1413.8
2014-Jul-28 20:34N 32°13' E 030°13'1413.7
2014-Jul-28 19:34N 32°17' E 029°57'1313.4
2014-Jul-28 18:34N 32°20' E 029°42'1313.2
2014-Jul-28 17:33N 32°24' E 029°27'1313.0
2014-Jul-28 16:34N 32°28' E 029°12'1312.9
2014-Jul-28 15:33N 32°32' E 028°58'1312.9
2014-Jul-28 14:33N 32°37' E 028°43'1313.0
2014-Jul-28 13:32N 32°41' E 028°28'1813.1
2014-Jul-28 12:09N 32°46' E 028°08'62413.4
2014-Jul-26 13:33N 35°54' E 016°08'1312.6
2014-Jul-26 12:33N 35°57' E 015°53'1312.6
2014-Jul-26 11:34N 36°01' E 015°38'1512.8
2014-Jul-26 10:21N 36°06' E 015°20'1113.0
2014-Jul-26 09:29N 36°09' E 015°06'1213.4
2014-Jul-26 08:33N 36°12' E 014°51'1413.9
2014-Jul-26 07:33N 36°17' E 014°35'1414.1
2014-Jul-26 06:34N 36°21' E 014°18'1413.7
2014-Jul-26 05:34N 36°25' E 014°02'1313.4
2014-Jul-26 04:34N 36°29' E 013°46'1313.5
2014-Jul-26 03:34N 36°33' E 013°30'1413.3
2014-Jul-26 02:32N 36°37' E 013°14'1414.1
2014-Jul-26 01:33N 36°42' E 012°58'1414.3
2014-Jul-26 00:33N 36°46' E 012°41'1514.2
2014-Jul-25 23:31N 36°51' E 012°23'1313.8
2014-Jul-25 22:33N 36°57' E 012°09'1313.5
2014-Jul-25 21:33N 37°03' E 011°54'1413.8
2014-Jul-25 20:33N 37°10' E 011°39'6512.9
2014-Jul-25 15:33N 37°33' E 010°23'1413.2
2014-Jul-25 14:31N 37°33' E 010°06'1313.4
2014-Jul-25 13:33N 37°34' E 009°49'1313.4
2014-Jul-25 12:33N 37°35' E 009°32'1313.3
2014-Jul-25 11:33N 37°36' E 009°16'2713.2
2014-Jul-25 09:29N 37°35' E 008°41'1212.9
2014-Jul-25 08:33N 37°34' E 008°26'1212.4
2014-Jul-25 07:33N 37°33' E 008°10'1412.5
2014-Jul-25 06:24N 37°32' E 007°52'5212.9
2014-Jul-25 02:21N 37°26' E 006°47'1013.2
2014-Jul-25 01:33N 37°25' E 006°34'1312.5
2014-Jul-25 00:33N 37°25' E 006°18'1212.1
2014-Jul-24 23:33N 37°24' E 006°03'1212.3
2014-Jul-24 22:33N 37°22' E 005°47'1312.9
2014-Jul-24 21:33N 37°21' E 005°31'1312.7
2014-Jul-24 20:33N 37°19' E 005°15'1212.5
2014-Jul-24 19:34N 37°18' E 004°60'1312.7
2014-Jul-24 18:33N 37°18' E 004°44'1312.8
2014-Jul-24 17:33N 37°16' E 004°28'1312.6
2014-Jul-24 16:33N 37°15' E 004°12'1312.7
2014-Jul-24 15:33N 37°14' E 003°56'1312.7
2014-Jul-24 14:33N 37°13' E 003°40'1413.6
2014-Jul-24 13:34N 37°12' E 003°23'1514.5
2014-Jul-24 12:33N 37°10' E 003°05'1414.2
2014-Jul-24 11:33N 37°07' E 002°48'1413.6
2014-Jul-24 10:33N 37°04' E 002°31'1413.3
2014-Jul-24 09:32N 37°02' E 002°14'1413.3
2014-Jul-24 08:30N 36°59' E 001°58'1313.7
2014-Jul-24 07:32N 36°56' E 001°41'1515.1
2014-Jul-24 06:32N 36°54' E 001°23'1414.4
2014-Jul-24 05:33N 36°51' E 001°05'1414.2
2014-Jul-24 04:33N 36°49' E 000°48'1414.2
2014-Jul-24 03:33N 36°47' E 000°30'1414.1
2014-Jul-24 02:34N 36°44' E 000°13'1413.9
2014-Jul-24 01:33N 36°41' W 000°04'1414.1
2014-Jul-24 00:33N 36°39' W 000°21'1414.4
2014-Jul-23 23:33N 36°36' W 000°39'1413.8
2014-Jul-23 22:33N 36°33' W 000°56'17214.1
2014-Jul-23 10:19N 36°10' W 004°27'102 5.2
2014-Jul-22 14:33N 35°54' W 006°32'1514.6
2014-Jul-22 13:34N 35°57' W 006°50'1514.6
2014-Jul-22 12:34N 36°00' W 007°08'1414.3
2014-Jul-22 11:33N 36°04' W 007°25'1514.8
2014-Jul-22 10:33N 36°06' W 007°43'4714.9
2014-Jul-22 07:25N 36°15' W 008°40'1314.7
2014-Jul-22 06:33N 36°17' W 008°55'1514.4
2014-Jul-22 05:31N 36°19' W 009°14'1414.2
2014-Jul-22 04:33N 36°21' W 009°30'1414.1
2014-Jul-22 03:33N 36°24' W 009°48'1414.1
2014-Jul-22 02:33N 36°26' W 010°05'1414.1
2014-Jul-22 01:33N 36°29' W 010°22'6013.9
2014-Jul-21 21:15N 36°38' W 011°35'1014.6
2014-Jul-21 20:33N 36°39' W 011°48'414.9
2014-Jul-21 20:18N 36°40' W 011°53'1114.7
2014-Jul-21 19:33N 36°41' W 012°06'1515.0
2014-Jul-21 18:33N 36°43' W 012°25'1514.8
2014-Jul-21 17:33N 36°46' W 012°43'1514.6
2014-Jul-21 16:33N 36°48' W 013°01'49814.2
2014-Jul-20 05:32N 37°28' W 023°24'1313.7
2014-Jul-20 04:33N 37°29' W 023°41'1413.6
2014-Jul-20 03:33N 37°29' W 023°58'1414.0
2014-Jul-20 02:34N 37°30' W 024°16'  
Track history (hours):
 
Tides and Currents Weather Stations Pressure Air Temp Water Temp Dewpoint Dewpoint Depression Visibility Wind Speed Wind Dir Waves Ship Positions

BBC Congo

Last reported at 2014-Jul-30 02:25 UTC. Time now 2014-Jul-31 17:36 UTC.
Position N 30°54' E 032°19'.

Length 144 m; draft 9 m.

Type: Ship. MMSI: 305466000.

Date/timePositionNaut miles runAvg speedWind from/ knotsBaromVisibWave heightAir tempDewpointWater temp
2014-Jul-30 02:25N 30°54' E 032°19'23 8.2
2014-Jul-29 23:33N 31°18' E 032°20'4 4.4
2014-Jul-29 22:33N 31°22' E 032°20'1 0.2
2014-Jul-29 18:22N 31°21' E 032°20'0 0.0
2014-Jul-29 11:07N 31°21' E 032°20'0 0.0
2014-Jul-29 10:31N 31°21' E 032°20'0 0.0
2014-Jul-29 09:28N 31°21' E 032°20'0 0.0
2014-Jul-29 08:31N 31°21' E 032°20'14 3.5
2014-Jul-29 04:34N 31°33' E 032°11'2713.3
2014-Jul-29 02:32N 31°48' E 031°45'1413.9
2014-Jul-29 01:33N 31°52' E 031°29'1413.8
2014-Jul-29 00:34N 31°56' E 031°14'1413.6
2014-Jul-28 23:34N 32°00' E 030°59'1413.6
2014-Jul-28 22:34N 32°04' E 030°43'1413.7
2014-Jul-28 21:33N 32°09' E 030°28'1413.8
2014-Jul-28 20:34N 32°13' E 030°13'1413.7
2014-Jul-28 19:34N 32°17' E 029°57'1313.4
2014-Jul-28 18:34N 32°20' E 029°42'1313.2
2014-Jul-28 17:33N 32°24' E 029°27'1313.0
2014-Jul-28 16:34N 32°28' E 029°12'1312.9
2014-Jul-28 15:33N 32°32' E 028°58'1312.9
2014-Jul-28 14:33N 32°37' E 028°43'1313.0
2014-Jul-28 13:32N 32°41' E 028°28'1813.1
2014-Jul-28 12:09N 32°46' E 028°08'62413.4
2014-Jul-26 13:33N 35°54' E 016°08'1312.6
2014-Jul-26 12:33N 35°57' E 015°53'1312.6
2014-Jul-26 11:34N 36°01' E 015°38'1512.8
2014-Jul-26 10:21N 36°06' E 015°20'1113.0
2014-Jul-26 09:29N 36°09' E 015°06'1213.4
2014-Jul-26 08:33N 36°12' E 014°51'1413.9
2014-Jul-26 07:33N 36°17' E 014°35'1414.1
2014-Jul-26 06:34N 36°21' E 014°18'1413.7
2014-Jul-26 05:34N 36°25' E 014°02'1313.4
2014-Jul-26 04:34N 36°29' E 013°46'1313.5
2014-Jul-26 03:34N 36°33' E 013°30'1413.3
2014-Jul-26 02:32N 36°37' E 013°14'1414.1
2014-Jul-26 01:33N 36°42' E 012°58'1414.3
2014-Jul-26 00:33N 36°46' E 012°41'1514.2
2014-Jul-25 23:31N 36°51' E 012°23'1313.8
2014-Jul-25 22:33N 36°57' E 012°09'1313.5
2014-Jul-25 21:33N 37°03' E 011°54'1413.8
2014-Jul-25 20:33N 37°10' E 011°39'6512.9
2014-Jul-25 15:33N 37°33' E 010°23'1413.2
2014-Jul-25 14:31N 37°33' E 010°06'1313.4
2014-Jul-25 13:33N 37°34' E 009°49'1313.4
2014-Jul-25 12:33N 37°35' E 009°32'1313.3
2014-Jul-25 11:33N 37°36' E 009°16'2713.2
2014-Jul-25 09:29N 37°35' E 008°41'1212.9
2014-Jul-25 08:33N 37°34' E 008°26'1212.4
2014-Jul-25 07:33N 37°33' E 008°10'1412.5
2014-Jul-25 06:24N 37°32' E 007°52'5212.9
2014-Jul-25 02:21N 37°26' E 006°47'1013.2
2014-Jul-25 01:33N 37°25' E 006°34'1312.5
2014-Jul-25 00:33N 37°25' E 006°18'1212.1
2014-Jul-24 23:33N 37°24' E 006°03'1212.3
2014-Jul-24 22:33N 37°22' E 005°47'1312.9
2014-Jul-24 21:33N 37°21' E 005°31'1312.7
2014-Jul-24 20:33N 37°19' E 005°15'1212.5
2014-Jul-24 19:34N 37°18' E 004°60'1312.7
2014-Jul-24 18:33N 37°18' E 004°44'1312.8
2014-Jul-24 17:33N 37°16' E 004°28'1312.6
2014-Jul-24 16:33N 37°15' E 004°12'1312.7
2014-Jul-24 15:33N 37°14' E 003°56'1312.7
2014-Jul-24 14:33N 37°13' E 003°40'1413.6
2014-Jul-24 13:34N 37°12' E 003°23'1514.5
2014-Jul-24 12:33N 37°10' E 003°05'1414.2
2014-Jul-24 11:33N 37°07' E 002°48'1413.6
2014-Jul-24 10:33N 37°04' E 002°31'1413.3
2014-Jul-24 09:32N 37°02' E 002°14'1413.3
2014-Jul-24 08:30N 36°59' E 001°58'1313.7
2014-Jul-24 07:32N 36°56' E 001°41'1515.1
2014-Jul-24 06:32N 36°54' E 001°23'1414.4
2014-Jul-24 05:33N 36°51' E 001°05'1414.2
2014-Jul-24 04:33N 36°49' E 000°48'1414.2
2014-Jul-24 03:33N 36°47' E 000°30'1414.1
2014-Jul-24 02:34N 36°44' E 000°13'1413.9
2014-Jul-24 01:33N 36°41' W 000°04'1414.1
2014-Jul-24 00:33N 36°39' W 000°21'1414.4
2014-Jul-23 23:33N 36°36' W 000°39'1413.8
2014-Jul-23 22:33N 36°33' W 000°56'17214.1
2014-Jul-23 10:19N 36°10' W 004°27'102 5.2
2014-Jul-22 14:33N 35°54' W 006°32'1514.6
2014-Jul-22 13:34N 35°57' W 006°50'1514.6
2014-Jul-22 12:34N 36°00' W 007°08'1414.3
2014-Jul-22 11:33N 36°04' W 007°25'1514.8
2014-Jul-22 10:33N 36°06' W 007°43'4714.9
2014-Jul-22 07:25N 36°15' W 008°40'1314.7
2014-Jul-22 06:33N 36°17' W 008°55'1514.4
2014-Jul-22 05:31N 36°19' W 009°14'1414.2
2014-Jul-22 04:33N 36°21' W 009°30'1414.1
2014-Jul-22 03:33N 36°24' W 009°48'1414.1
2014-Jul-22 02:33N 36°26' W 010°05'1414.1
2014-Jul-22 01:33N 36°29' W 010°22'6013.9
2014-Jul-21 21:15N 36°38' W 011°35'1014.6
2014-Jul-21 20:33N 36°39' W 011°48'414.9
2014-Jul-21 20:18N 36°40' W 011°53'1114.7
2014-Jul-21 19:33N 36°41' W 012°06'1515.0
2014-Jul-21 18:33N 36°43' W 012°25'1514.8
2014-Jul-21 17:33N 36°46' W 012°43'1514.6
2014-Jul-21 16:33N 36°48' W 013°01'49814.2
2014-Jul-20 05:32N 37°28' W 023°24'1313.7
2014-Jul-20 04:33N 37°29' W 023°41'1413.6
2014-Jul-20 03:33N 37°29' W 023°58'1414.0
2014-Jul-20 02:34N 37°30' W 024°16'  

Dump ship's entire track history